Location: Goettingen
(51.5300°N, 9.9433°E)
Time: 05:06:12
(UTC+01:00)

ISS - Pass Details

Date: 22 February 2020
Orbit: 415 x 423 km, 51.6° (Epoch: 27 February)

Event Time Altitude Azimuth Distance (km) Brightness Sun altitude
Rises 06:41:40 0° 213° (SSW) 2,357 -0.2 -6.9°
Reaches altitude 10° 06:44:02 10° 198° (SSW) 1,498 -1.0 -6.5°
Maximum altitude 06:46:43 22° 145° (SE) 971 -1.3 -6.1°
Drops below altitude 10° 06:49:25 10° 92° (E) 1,508 0.9 -5.7°
Sets 06:51:48 0° 77° (ENE) 2,378 1.5 -5.3°
